Regional Weather Roundup
Issued by NWS

Home | Current Version | Previous Version | Text Only | Print | Product List | Glossary Off
Versions: 1 2 3 4 5 6 7 8 9 10 11 12 13 14 15 16 17 18 19 20 21 22 23 24 25 26 27

000
ASUS45 KTFX 220210
RWRMT
MONTANA REGIONAL WEATHER ROUNDUP
NATIONAL WEATHER SERVICE GREAT FALLS MT
800 PM MDT TUE MAR 21 2017

NOTE: "FAIR" INDICATES FEW OR NO CLOUDS BELOW 12000 FEET WITH NO
SIGNIFICANT WEATHER AND/OR OBSTRUCTIONS TO VISIBILITY.

MTZ001>007-043-220300-
WEST OF THE DIVIDE

CITY           SKY/WX    TMP DP  RH WIND       PRES   REMARKS
KALISPELL      LGT RAIN  42  39  89 N3        29.78F
MISSOULA       LGT RAIN  45  40  82 NW6       29.79R
BUTTE          CLOUDY    44  35  70 S17       29.80F
MULLAN PASS    FOG       34  34 100 SE8       29.76F VSB<1/4 WCI  27
ANACONDA         N/A     48  37  66 CALM      29.77F
DEER LODGE       N/A     46  37  71 CALM      29.79F
EUREKA           N/A     39  30  70 W5        29.83S
HAMILTON         N/A     48  43  81 SE7       29.79R
PLAINS           N/A     47  35  63 CALM      29.80F
RONAN            N/A     44  38  79 CALM      29.85S
THOMPSON FALLS   N/A     45  42  89 S1        29.83
$$

MTZ008-052>055-220300-
SOUTHWEST MONTANA

CITY           SKY/WX    TMP DP  RH WIND       PRES   REMARKS
BOZEMAN        CLEAR     44  35  70 NW3       29.84F
DILLON         CLOUDY    41  33  73 NE6       29.82S
W YELLOWSTONE  CLOUDY    43  30  61 CALM      29.92F
ENNIS          MOCLDY    41  37  87 CALM      29.89S
THREE FORKS      N/A     43  43 100 CALM      29.86S
TWIN BRIDGES     N/A     44  33  65 N10       29.83S
$$

MTZ009-010-012-014-046-048-049-054-220300-
EAST SLOPES AND CENTRAL MONTANA

CITY           SKY/WX    TMP DP  RH WIND       PRES   REMARKS
CUT BANK       CLOUDY    40  32  73 E13       29.81F
GREAT FALLS    MOCLDY    47  31  53 SE6       29.81F
HELENA         CLEAR     47  37  68 W3        29.80F
AUGUSTA        MOCLDY    46  31  57 SE3       29.80F
BOWMANS CRNR   MOCLDY    44  33  63 S5        29.78F
CHOTEAU          N/A     43  32  65 E10       29.82F
CONRAD           N/A     41  36  82 E12       29.87S
FAIRFIELD      MOCLDY    43  31  63 E12       29.79F
POWER          MOCLDY    39  31  73 E15       29.80F WCI  31
RAYNESFORD     MOCLDY    40  31  69 SE16G22   29.83F
$$

MTZ011-013-016-021-045-047-050-051-220300-
NORTH CENTRAL MONTANA

CITY           SKY/WX    TMP DP  RH WIND       PRES   REMARKS
HAVRE          CLOUDY    40  32  73 E13       29.89F
LEWISTOWN      CLOUDY    38  31  76 E14       29.89F WCI  30
N BAR RANCH    CLOUDY    34  32  93 S8G15     29.97F FOG     WCI  27
CHINOOK          N/A     37  30  75 E17G25    29.94F WCI  28
DENTON         CLOUDY    42  33  71 SE24G31   29.86F
FORT BENTON      N/A     41  32  70 MISG      29.84F
GEYSER         MOCLDY    37  30  77 N8        29.84F WCI  31
GRASS RANGE    MOCLDY    37  33  86 SE13      29.90F WCI  29
STANFORD       MOCLDY    37  31  76 S12       29.85F WCI  30
WINIFRED       CLOUDY    37  33  83 E17       29.89F WCI  28
$$

MTZ017>020-022>027-061-062-220300-
NORTHEAST MONTANA

CITY           SKY/WX    TMP DP  RH WIND       PRES   REMARKS
GLASGOW        CLOUDY    38  26  62 SE21      30.09F WCI  28
JORDAN           N/A     36  29  75 SE21G29   30.06F WCI  25
SIDNEY         CLOUDY   N/A N/A N/A SE15      30.26F
WOLF POINT     CLOUDY    39  24  55 SE17      30.18F WCI  30
MALTA          CLOUDY    39  30  70 SE16G24   30.04F WCI  30
PLENTYWOOD       N/A     27  18  69 E21G28    30.24F WCI  13
POPLAR           N/A     36  23  60 E18       30.20F WCI  25
SCOBEY           N/A     29  14  53 E15       30.14F WCI  18
$$

MTZ028>42-056>058-220300-
SOUTHCENTRAL AND SOUTHEAST MONTANA

CITY           SKY/WX    TMP DP  RH WIND       PRES   REMARKS
BAKER          CLOUDY    30  25  81 SE25G38   30.18F WCI  16
BILLINGS       CLOUDY    39  36  89 E7        29.97F
LIVINGSTON     CLOUDY    34  31  88 E9        29.94F WCI  27
MILES CITY     CLOUDY    34  28  79 SE22G29   30.12F WCI  22
BIG TIMBER     FOG       34  34 100 E5        29.99F VSB 0
FORSYTH          N/A     36  34  93 E18       30.06F WCI  25
HARLOWTON      MOCLDY    33  32  97 E7        29.97F FOG     WCI  27
LAUREL           N/A     39  34  82 NE5       29.96F
$$

REGIONAL REPORTS...DAKOTAS

CITY           SKY/WX    TMP DP  RH WIND       PRES   REMARKS
WILLISTON      CLEAR     27  16  63 SE15      30.31F WCI  15
MINOT          CLEAR     19  11  70 E14       30.45F WCI   6
DICKINSON      CLOUDY    29  15  56 SE20G26   30.27F WCI  16
BEACH            N/A    N/A N/A N/A MISG        N/A
TIOGA            N/A     21  21 100 SE20      30.34F WCI   6
WATFORD CITY     N/A     27  16  63 SE16      30.30F WCI  14
BISMARCK       CLEAR     25  17  72 E9        30.46S WCI  15
GRAND FORKS    CLEAR     18   8  65 N6        30.59R WCI  10
FARGO          CLEAR     21  15  78 N8        30.57R WCI  11
BUFFALO SD       N/A     30  27  88 SE24      30.16F WCI  16
RAPID CITY     CLOUDY    30  28  92 SE13      30.26F FOG     WCI  20
$$

REGIONAL REPORTS...WYOMING/IDAHO/WASHINGTON

CITY           SKY/WX    TMP DP  RH WIND       PRES   REMARKS
GILLETTE       CLOUDY    36  33  89 S25G33    30.04F WCI  24
SHERIDAN       CLOUDY    44  36  73 SE16      29.96F
BUFFALO WY     CLOUDY    40  34  79 SE9G22    29.99F
CODY           CLOUDY    43  37  79 E5        29.96F
YELLOWSTONE LA   N/A     34  31  88 CALM      30.01S
IDAHO FALLS    PTCLDY    60  33  36 E5        29.82S
SALMON         PTCLDY    57  37  47 E7        29.73S
BOISE          CLOUDY    48  43  82 N12       29.90R
SPOKANE        LGT RAIN  46  43  89 W3        29.73R FOG
$$

REGIONAL REPORTS...ALBERTA

CITY           SKY/WX    TMP DP  RH WIND       PRES   REMARKS
EDMONTON       MOCLDY    32  21  64 E13       29.82F WCI  22
CALGARY        MOCLDY    39  28  65 SE9       29.73F
LETHBRIDGE     MOCLDY    45  32  61 SE13      29.78F
MEDICINE HAT   MOCLDY    41  28  60 SE7       29.87F
WATERTON GATE    N/A     41  32  70 S3          N/A
CARDSTON         N/A     43  32  65 SE12G17     N/A
MILK RIVER       N/A     41  32  70 S21         N/A
$$

REGIONAL REPORTS...SASKATCHEWAN

CITY           SKY/WX    TMP DP  RH WIND       PRES   REMARKS
SWIFT CURRENT  CLOUDY    32  21  64 SE26G36   30.01F WCI  18
REGINA         PTCLDY    19  14  79 SE23G31   30.27F WCI   2
SASKATOON      CLOUDY    28  14  54 SE17G26   30.20F WCI  16
CYPRESS HILLS    N/A     30  25  80 SE20G28     N/A  WCI  18
VAL MARIE        N/A     36  21  55 SE17G25     N/A  WCI  25
$$




USA.gov is the U.S. government's official web portal to all federal, state and local government web resources and services.